This demonstration page uses our WeatherBlox Daily Observations layout. Learn more.

41.55636, -103.73856

Hourly Observations for February 23, 2019

Temp ( °F °C ) Dew Point ( °F °C ) Humidity (%) Winds ( mph kmh ) Pressure ( in mb ) Visibility ( mi km ) Precip ( " mm )
12:58 am 00:58 Cloudy 23 -5.2 21 -6.2 93 93 Calm 30 1016 10 16.0934 N/A
1:58 am 01:58 Cloudy with Mist and Fog 21 -6.2 19 -7.3 92 92 Calm 30.01 1016 0.75 1.207005 N/A
2:58 am 02:58 Mostly Cloudy with Freezing Fog 20 -6.4 19 -7.5 92 92 Calm 30.01 1016 1 1.60934 N/A
3:58 am 03:58 Mostly Cloudy with Freezing Fog 20 -6.6 18 -7.8 91 91 Calm 30.04 1017 5 8.0467 N/A
4:58 am 04:58 Mostly Cloudy with Freezing Fog 20 -6.5 18 -7.6 92 92 Calm 30.01 1016 1 1.60934 N/A
5:58 am 05:58 Mostly Cloudy with Freezing Fog 20 -6.6 18 -7.7 92 92 NNW 3 6 30.01 1016 1 1.60934 N/A
6:58 am 06:58 Mostly Cloudy with Freezing Fog 20 -6.8 18 -7.9 92 92 Calm 30.02 1017 3 4.82802 N/A
7:58 am 07:58 Mostly Cloudy with Mist and Fog 19 -7.2 17 -8.4 91 91 Calm 30.01 1016 3 4.82802 N/A
8:58 am 08:58 Mostly Cloudy with Mist and Fog 18 -7.9 16 -9.1 91 91 NW 6 9 30 1016 6 9.65604 N/A
9:58 am 09:58 Partly Cloudy 17 -8.2 15 -9.5 90 90 NW 8 13 29.99 1016 10 16.0934 N/A
10:58 am 10:58 Mostly Cloudy 16 -9.1 13 -10.4 90 90 NW 18 30 29.97 1015 10 16.0934 N/A
11:58 am 11:58 Mostly Cloudy 16 -8.8 14 -10.1 90 90 NW 16 26 29.98 1015 10 16.0934 N/A
12:58 pm 12:58 Cloudy 16 -8.9 13 -10.7 87 87 WNW 18 30 29.99 1016 10 16.0934 N/A
1:58 pm 13:58 Mostly Cloudy 18 -8 8 -13.3 66 66 WNW 20 31 30.01 1016 10 16.0934 N/A
2:58 pm 14:58 Sunny 19 -7 7 -14.1 57 57 WNW 23 37 30.02 1017 10 16.0934 N/A
3:58 pm 15:58 Sunny 19 -7 6 -14.3 56 56 WNW 24 39 30.04 1017 10 16.0934 N/A
4:58 pm 16:58 Sunny 22 -5.3 8 -13.3 54 54 NW 26 43 30.02 1017 10 16.0934 N/A
5:58 pm 17:58 Sunny 26 -3.2 9 -13 47 47 NW 33 54 30.01 1016 10 16.0934 N/A
6:58 pm 18:58 Sunny 28 -2.1 7 -14.1 40 40 NNW 26 43 29.98 1015 10 16.0934 N/A
7:58 pm 19:58 Sunny 30 -1.1 8 -13.5 39 39 NW 26 43 29.99 1016 10 16.0934 N/A
8:58 pm 20:58 Sunny 31 -0.8 6 -14.6 35 35 NNW 30 48 29.99 1016 10 16.0934 N/A
9:58 pm 21:58 Sunny 31 -0.4 7 -14 35 35 NW 26 43 30.01 1016 10 16.0934 N/A
10:58 pm 22:58 Sunny 30 -0.9 7 -13.7 38 38 WNW 28 44 30.07 1018 10 16.0934 N/A
11:58 pm 23:58 Sunny 27 -2.7 9 -12.9 46 46 WNW 24 39 30.11 1020 10 16.0934 N/A

Powered by AerisWeather